[[{"header":{"parameterUnit":"m.s-1","parameterCategory":1,"la1":30.2991,"la2":30.254,"lo1":-89.0895,"lo2":-89.0444,"dy":0.0017,"dx":0.0017,"nx":28,"ny":28,"refTime":"2024-08-09T15:00:00:Z","depth":0,"parameterNumber":2,"parameterNumberName":"U-component_of_WINDS"},"data":[0,0,0,0,0,0,0,0,0,0,0,0,0,0,0,0,0,0,0,0,0,0,0,0,0,0,0,0,0,0,0,0,0,0,0,0,0,0,0,0,0,0,0,0,0,0,0,0,0,0,0,0,0,0,0,0,0,0,2.1483,2.1485,0,2.1675,2.1677,2.1679,2.1648,2.1644,2.1641,2.1638,2.1845,2.1854,2.1862,0,0,0,0,0,0,0,0,0,0,0,0,0,2.1103,2.111,2.1483,2.1486,2.1488,2.1675,2.1677,2.168,2.1648,2.1644,2.164,2.1636,2.1843,2.1853,2.1863,0,0,0,0,0,0,0,0,0,0,0,0,0,2.1279,2.1113,2.1483,2.1494,2.1497,2.1674,2.1678,2.1681,2.1649,2.1644,2.1639,2.1634,2.1839,2.1852,2.1865,2.2045,0,0,2.1904,2.191,0,0,0,0,0,0,0,0,2.1269,2.1293,2.149,2.1494,2.1497,2.1632,2.1619,2.1803,2.165,2.1592,2.1638,2.1632,2.1779,2.1797,2.1844,2.2055,2.2064,2.1905,2.1913,2.1919,2.1923,0,0,0,0,0,0,0,2.1257,2.1285,2.1559,2.1493,2.1498,2.1495,2.1514,2.1654,2.1712,2.1597,2.1595,2.1617,2.178,2.1832,2.1849,2.2067,2.1905,2.1917,2.1925,2.193,2.2443,2.2449,0,0,0,0,0,0,2.124,2.1275,2.1553,2.1565,2.1368,2.1505,2.1527,2.1594,2.171,2.1723,2.1621,2.1615,2.1812,2.1834,2.1856,2.208,2.1919,2.1931,2.1938,2.2438,2.2445,2.2451,0,0,0,0,0,0,2.1232,2.1265,2.1546,2.142,2.1455,2.1517,2.1593,2.1601,2.1652,2.1729,2.174,2.1662,2.1809,2.1838,2.1999,2.2087,2.1937,2.1949,2.2431,2.244,2.2448,2.2527,0,0,0,0,0,0,2.1221,2.1262,2.1328,2.1421,2.1462,2.1682,2.1598,2.1608,2.1673,2.1667,2.177,2.1783,2.1807,2.198,2.2012,2.2102,2.1959,2.2423,2.2435,2.2445,2.2517,2.2537,2.2554,0,0,0,0,0,2.1207,2.1343,2.1331,2.1365,2.1545,2.1687,2.171,2.1732,2.168,2.175,2.18,2.1779,2.2071,2.1997,2.2033,2.2128,2.2418,2.2431,2.2444,2.2508,2.2533,2.2554,0,0,0,0,0,0,2.1262,2.1356,2.1343,2.1513,2.1592,2.1681,2.1769,2.1757,2.1856,2.1846,2.1873,2.1897,2.2062,2.211,2.2026,2.2312,2.2238,2.2259,2.2274,2.2299,2.2317,2.2304,2.1969,0,0,0,0,0,2.1293,2.1396,2.1474,2.1617,2.1656,2.1706,2.1768,2.1779,2.1863,2.1897,2.1959,2.2045,2.2157,2.223,2.2336,2.2523,2.2549,2.2606,2.2625,2.264,2.266,2.2768,2.2796,2.2494,2.2494,2.2494,0,0,2.1359,2.1423,2.1487,2.1629,2.1691,2.1803,2.1734,2.1854,2.1939,2.1917,2.2073,2.2122,2.222,2.2397,2.2477,2.2443,2.2748,2.2657,2.2669,2.268,2.2785,2.2813,2.2839,2.2503,2.2502,2.25,0,0,2.1538,2.1594,2.1722,2.1786,2.188,2.1913,2.1943,2.2035,2.2066,2.2223,2.2211,2.2314,2.2504,2.2576,2.2638,2.2848,2.2836,2.2882,2.2983,2.3088,2.3112,2.3133,2.3214,2.3242,2.29,2.2901,2.2901,0,2.161,2.1773,2.1789,2.1911,2.1977,2.196,2.2092,2.2155,2.2281,2.2329,2.2287,2.2528,2.2593,2.2788,2.284,2.2889,2.293,2.2872,2.3106,2.3128,2.3148,2.3226,2.3255,2.2906,2.2905,2.2905,2.2904,0,2.1859,2.1973,2.2065,2.2185,2.2261,2.2388,2.2429,2.2504,2.2509,2.2548,2.2711,2.2788,2.2913,2.2959,2.2965,2.3158,2.3134,2.3099,2.3026,2.3182,2.3256,2.3285,2.2914,2.2912,2.291,2.2909,0,0,2.2078,2.2206,2.224,2.2297,2.2402,2.2493,2.2621,2.274,2.2807,2.2895,2.3008,2.3171,2.314,2.321,2.3225,2.3317,2.3486,2.3272,2.3275,2.3313,2.371,2.3739,2.3772,2.3477,2.3482,2.3487,2.3704,0,2.227,2.2493,2.2513,2.2716,2.2825,2.2812,2.2925,2.3005,2.3045,2.3147,2.3194,2.3311,2.3258,2.3302,2.3391,2.3446,2.3567,2.343,2.3588,2.3593,2.3567,2.3809,2.3839,2.4039,2.3732,2.3736,2.374,0,2.2523,2.2618,2.283,2.2924,2.2971,2.3071,2.3185,2.328,2.3373,2.3397,2.3476,2.348,2.3619,2.3538,2.3733,2.364,2.3706,2.3743,2.3751,2.377,2.3678,2.3839,2.4103,2.4135,2.3784,2.3781,2.3777,0,2.2668,2.2848,2.3,2.3048,2.316,2.3232,2.3283,2.3369,2.3441,2.3542,2.359,2.3706,2.3771,2.3863,2.3901,2.3837,2.4096,2.4017,2.4125,2.4125,2.4183,2.4179,2.4465,2.4218,2.4218,2.4217,2.4216,0,2.2882,2.3014,2.3066,2.316,2.331,2.3335,2.3484,2.3532,2.361,2.3717,2.3713,2.3815,2.3855,2.3966,2.3996,2.4156,2.4185,2.4212,2.4219,2.4215,2.4212,2.4261,2.425,2.4225,2.4223,2.4222,2.422,0,2.3069,2.3108,2.3274,2.3367,2.3393,2.35,2.3582,2.3676,2.3715,2.3851,2.3885,2.3949,2.4079,2.4124,2.4282,2.4302,2.4491,2.4484,2.4459,2.4461,2.4569,2.456,2.49,2.4949,2.4665,2.4668,2.467,0,2.3205,2.3307,2.341,2.348,2.3533,2.3646,2.3719,2.3749,2.3826,2.3941,2.4023,2.4151,2.4255,2.4464,2.4528,2.465,2.465,2.476,2.4668,2.4662,2.4658,2.4653,2.4666,2.4779,2.4782,2.4784,2.4786,0,2.3445,2.346,2.3563,2.3676,2.3763,2.3854,2.3941,2.4,2.4044,2.4132,2.4263,2.4344,2.4505,2.4635,2.4761,2.4818,2.4813,2.4814,2.4847,2.4845,2.4828,2.4844,2.4511,2.4807,2.4805,2.4803,2.4802,2.4801,2.3615,2.3706,2.3794,2.3911,2.398,2.4063,2.4157,2.4208,2.4317,2.4448,2.446,2.4604,2.4699,2.4867,2.4931,2.5047,2.5017,2.5062,2.5075,2.5087,2.5098,2.4806,2.5069,2.5069,2.5068,2.5068,2.5068,0,2.3858,2.3914,2.4022,2.4144,2.4238,2.4219,2.4317,2.4399,2.4523,2.4611,2.4713,2.4868,2.4994,2.5068,2.5196,2.5276,2.5277,2.5309,2.5306,2.5321,2.5114,2.5076,2.5306,2.5306,2.5306,2.5306,2.5306,2.5306,2.3996,2.4151,2.4178,2.437,2.4426,2.4564,2.4622,2.4701,2.4771,2.4942,2.5046,2.5092,2.5177,2.5312,2.543,2.5449,2.5499,2.5535,2.5552,2.5359,2.5334,2.5311,2.5275,2.5544,2.5544,2.5749,2.5751,2.5752]},{"header":{"parameterUnit":"m.s-1","parameterCategory":1,"la1":30.2991,"la2":30.254,"lo1":-89.0895,"lo2":-89.0444,"dy":0.0017,"dx":0.0017,"nx":28,"ny":28,"refTime":"2024-08-09T15:00:00:Z","depth":0,"parameterNumber":3,"parameterNumberName":"V-component_of_WINDS"},"data":[0,0,0,0,0,0,0,0,0,0,0,0,0,0,0,0,0,0,0,0,0,0,0,0,0,0,0,0,0,0,0,0,0,0,0,0,0,0,0,0,0,0,0,0,0,0,0,0,0,0,0,0,0,0,0,0,0,0,-0.966,-0.9658,0,-0.9471,-0.9468,-0.9466,-0.9476,-0.9479,-0.9482,-0.9484,-0.9282,-0.9274,-0.9267,0,0,0,0,0,0,0,0,0,0,0,0,0,-1.0022,-1.0015,-0.966,-0.9657,-0.9655,-0.9471,-0.9468,-0.9466,-0.9476,-0.9479,-0.9482,-0.9485,-0.9285,-0.9275,-0.9266,0,0,0,0,0,0,0,0,0,0,0,0,0,-0.9852,-1.0013,-0.966,-0.9638,-0.9634,-0.9471,-0.9468,-0.9465,-0.9475,-0.9479,-0.9483,-0.9487,-0.9288,-0.9276,-0.9265,-0.9109,0,0,-0.9228,-0.9223,0,0,0,0,0,0,0,0,-0.9861,-0.9838,-0.9644,-0.9639,-0.9635,-0.9501,-0.9522,-0.9345,-0.9474,-0.9535,-0.9484,-0.9489,-0.9351,-0.9334,-0.929,-0.9099,-0.9091,-0.9227,-0.922,-0.9215,-0.9211,0,0,0,0,0,0,0,-0.9873,-0.9847,-0.9585,-0.9641,-0.9635,-0.9635,-0.9615,-0.9488,-0.9422,-0.953,-0.953,-0.9508,-0.9349,-0.9301,-0.9285,-0.9088,-0.9227,-0.9217,-0.9209,-0.9205,-0.8759,-0.8755,0,0,0,0,0,0,-0.9891,-0.9856,-0.9591,-0.9579,-0.9761,-0.9625,-0.9603,-0.954,-0.9424,-0.941,-0.9505,-0.951,-0.9319,-0.9299,-0.9278,-0.9087,-0.9215,-0.9204,-0.9197,-0.8764,-0.8758,-0.8753,0,0,0,0,0,0,-0.9899,-0.9867,-0.9598,-0.9718,-0.9684,-0.9615,-0.9543,-0.9534,-0.9486,-0.9405,-0.9392,-0.9468,-0.9322,-0.9295,-0.9151,-0.908,-0.9198,-0.9188,-0.877,-0.8762,-0.8756,-0.8705,0,0,0,0,0,0,-0.9909,-0.987,-0.9812,-0.9716,-0.9677,-0.9477,-0.9539,-0.9527,-0.9466,-0.947,-0.9367,-0.9354,-0.9323,-0.9169,-0.9139,-0.9066,-0.9178,-0.8776,-0.8766,-0.8758,-0.8712,-0.8697,-0.8684,0,0,0,0,0,-0.9922,-0.9803,-0.9809,-0.9777,-0.9603,-0.9473,-0.945,-0.9419,-0.946,-0.94,-0.9348,-0.9357,-0.9093,-0.9154,-0.9121,-0.9043,-0.878,-0.8769,-0.8759,-0.8719,-0.87,-0.8684,0,0,0,0,0,0,-0.9888,-0.979,-0.9795,-0.9643,-0.9566,-0.9475,-0.9398,-0.94,-0.9309,-0.9316,-0.928,-0.9256,-0.9112,-0.9063,-0.9133,-0.8886,-0.8941,-0.8924,-0.8923,-0.8904,-0.889,-0.8903,-0.9168,0,0,0,0,0,-0.9864,-0.9769,-0.9687,-0.956,-0.9522,-0.9467,-0.9408,-0.9392,-0.931,-0.9277,-0.9215,-0.9133,-0.9032,-0.8965,-0.8868,-0.8706,-0.8683,-0.8636,-0.8622,-0.861,-0.8595,-0.8505,-0.8482,-0.8719,-0.8719,-0.8719,0,0,-0.9811,-0.9746,-0.9687,-0.9552,-0.9491,-0.939,-0.9439,-0.9331,-0.9255,-0.926,-0.9121,-0.9073,-0.8979,-0.8826,-0.8755,-0.878,-0.8525,-0.8597,-0.8588,-0.8579,-0.8491,-0.8469,-0.8449,-0.8711,-0.8713,-0.8714,0,0,-0.9663,-0.9605,-0.9493,-0.9431,-0.934,-0.9304,-0.9277,-0.9185,-0.9154,-0.9015,-0.9016,-0.8925,-0.8751,-0.8684,-0.8627,-0.8456,-0.846,-0.8425,-0.8348,-0.8261,-0.8242,-0.8226,-0.8163,-0.8141,-0.841,-0.841,-0.841,0,-0.9608,-0.946,-0.9434,-0.9325,-0.9265,-0.9268,-0.9152,-0.9093,-0.8973,-0.893,-0.8961,-0.8744,-0.8681,-0.8512,-0.8471,-0.8425,-0.8391,-0.8435,-0.8248,-0.8231,-0.8215,-0.8154,-0.8131,-0.8406,-0.8407,-0.8407,-0.8407,0,-0.9395,-0.9292,-0.9212,-0.9099,-0.903,-0.8918,-0.8874,-0.8806,-0.8796,-0.8756,-0.8614,-0.8539,-0.8426,-0.8386,-0.8373,-0.8214,-0.8233,-0.8256,-0.8311,-0.8189,-0.8131,-0.8108,-0.8401,-0.8402,-0.8403,-0.8404,0,0,-0.9219,-0.9095,-0.9066,-0.9014,-0.8914,-0.8832,-0.872,-0.8613,-0.8555,-0.8472,-0.8376,-0.823,-0.8252,-0.8188,-0.8168,-0.8092,-0.7959,-0.8124,-0.8122,-0.8095,-0.7777,-0.7759,-0.7733,-0.7962,-0.7958,-0.7954,-0.7785,0,-0.9059,-0.8864,-0.8838,-0.8663,-0.8567,-0.8569,-0.8471,-0.8398,-0.8358,-0.8268,-0.8223,-0.812,-0.8157,-0.8118,-0.8043,-0.7991,-0.7894,-0.8003,-0.7869,-0.7865,-0.7891,-0.7703,-0.7683,-0.7526,-0.7762,-0.7758,-0.7756,0,-0.8846,-0.8761,-0.8578,-0.8491,-0.8449,-0.8362,-0.8262,-0.8177,-0.8093,-0.807,-0.7999,-0.7989,-0.7871,-0.7933,-0.7769,-0.7844,-0.7787,-0.7754,-0.7747,-0.7731,-0.7801,-0.768,-0.7475,-0.7451,-0.772,-0.7723,-0.7726,0,-0.8734,-0.8573,-0.8442,-0.8398,-0.8294,-0.8233,-0.8186,-0.8107,-0.8044,-0.7956,-0.7914,-0.7812,-0.7755,-0.7676,-0.7638,-0.7687,-0.7475,-0.7535,-0.745,-0.7451,-0.7403,-0.7406,-0.7185,-0.7371,-0.7371,-0.7372,-0.7372,0,-0.8557,-0.8444,-0.8391,-0.831,-0.8183,-0.8154,-0.8028,-0.7983,-0.7913,-0.7822,-0.7818,-0.7732,-0.7688,-0.7595,-0.7565,-0.7433,-0.7407,-0.7383,-0.7376,-0.7382,-0.7385,-0.7343,-0.7352,-0.7365,-0.7367,-0.7368,-0.7369,0,-0.8409,-0.8369,-0.8226,-0.8141,-0.8116,-0.8027,-0.7952,-0.7872,-0.7835,-0.772,-0.7691,-0.763,-0.752,-0.7476,-0.7341,-0.732,-0.7168,-0.717,-0.7196,-0.7194,-0.7111,-0.7119,-0.6853,-0.6816,-0.7028,-0.7027,-0.7025,0,-0.8298,-0.8211,-0.8117,-0.8058,-0.801,-0.7913,-0.785,-0.7818,-0.7751,-0.765,-0.7582,-0.7474,-0.7385,-0.721,-0.7152,-0.7048,-0.7047,-0.6961,-0.7031,-0.704,-0.7043,-0.7048,-0.7038,-0.6947,-0.6945,-0.6943,-0.6942,0,-0.8104,-0.8089,-0.7999,-0.7902,-0.7828,-0.7749,-0.7672,-0.7623,-0.7579,-0.7504,-0.7394,-0.7325,-0.7189,-0.708,-0.6974,-0.6923,-0.6923,-0.6921,-0.6895,-0.6899,-0.6918,-0.6905,-0.7159,-0.6926,-0.6928,-0.6929,-0.693,-0.693,-0.7969,-0.7893,-0.7815,-0.7715,-0.7655,-0.7584,-0.7505,-0.7459,-0.7367,-0.7255,-0.7241,-0.7122,-0.704,-0.6898,-0.6843,-0.6748,-0.677,-0.6734,-0.6724,-0.6715,-0.6709,-0.6936,-0.6729,-0.6729,-0.673,-0.673,-0.673,0,-0.7774,-0.7725,-0.7633,-0.7528,-0.7449,-0.7461,-0.7376,-0.7309,-0.7205,-0.713,-0.7044,-0.6916,-0.6811,-0.6746,-0.664,-0.6576,-0.6574,-0.6549,-0.6552,-0.654,-0.6696,-0.6728,-0.6553,-0.6553,-0.6553,-0.6553,-0.6553,-0.6553,-0.7663,-0.7534,-0.7509,-0.735,-0.73,-0.7186,-0.7137,-0.707,-0.7011,-0.6869,-0.6783,-0.6743,-0.6671,-0.656,-0.6464,-0.6447,-0.6407,-0.6381,-0.6365,-0.6511,-0.653,-0.6547,-0.6577,-0.6373,-0.6373,-0.6217,-0.6216,-0.6215]}]]